User: anonymous   Login
Location: Stull Observatory
(42.2506°N, 77.7903°W)
Time: 19:52:03
(UTC-05:00)
Language:

Abrixas rocket - Orbit

View from above orbital plane
View from above orbital plane
View from above satellite
View from above satellite

Ground track
Ground track

The orbit data is extracted from the following two-line orbital elements,

1 25723U 99022C   14356.25604535  .00027050  00000-0  77618-3 0  8300
2 25723 048.4230 270.7218 0014315 029.8030 105.2782 15.35478786866004
Epoch (UTC): 22 December 2014 06:08:42
Eccentricity: 0.0014315
inclination: 48.4230°
perigee height: 450 km
apogee height: 469 km
right ascension of ascending node: 270.7218°
argument of perigee: 29.8030°
revolutions per day: 15.35478786
mean anomaly at epoch: 105.2782°
orbit number at epoch: 86600

The dashed part of the orbit path shows where the satellite is in the earth's shadow,  

DLR